| time (UTC) | temp F | wind direction | speed knots | gust knots | rain 1hr in | rain 24hr in | rain mn in | humidity % | barometer mb |
| 20260906113012 | 73 | 320 | 0.0 | 0.9 | 0.00 | 0.00 | 0.00 | 83 | 1011.4 |
| 20260906111523 | 73 | 320 | 0.0 | 1.7 | 0.00 | 0.00 | 0.00 | 83 | 1011.4 |
| 20260906110003 | 73 | 320 | 0.0 | 1.7 | 0.00 | 0.00 | 0.00 | 83 | 1011.4 |
| 20260906104507 | 73 | 320 | 0.9 | 1.7 | 0.00 | 0.00 | 0.00 | 83 | 1011.2 |
| 20260906103010 | 73 | 320 | 0.0 | 0.9 | 0.00 | 0.00 | 0.00 | 83 | 1011.2 |
| 20260906101516 | 73 | 320 | 0.0 | 0.9 | 0.00 | 0.00 | 0.00 | 83 | 1010.9 |
| 20260906100025 | 73 | 320 | 0.0 | 0.0 | 0.00 | 0.00 | 0.00 | 83 | 1010.8 |
| 20260906094520 | 73 | 320 | 0.0 | 0.0 | 0.00 | 0.00 | 0.00 | 83 | 1010.6 |
| 20260906093017 | 73 | 320 | 0.0 | 0.9 | 0.00 | 0.00 | 0.00 | 83 | 1010.6 |
| 20260906091510 | 73 | 320 | 0.0 | 0.9 | 0.00 | 0.00 | 0.00 | 83 | 1010.3 |
| 20260906090024 | 73 | 320 | 0.0 | 1.7 | 0.00 | 0.00 | 0.00 | 84 | 1010.5 |
| 20260906084526 | 74 | 320 | 0.0 | 0.9 | 0.00 | 0.00 | 0.00 | 84 | 1010.4 |
| 20260906083005 | 74 | 309 | 0.0 | 2.6 | 0.00 | 0.00 | 0.00 | 84 | 1010.4 |
| 20260906081511 | 74 | 309 | 0.0 | 1.7 | 0.00 | 0.00 | 0.00 | 83 | 1010.7 |
| 20260906080013 | 74 | 38 | 0.0 | 1.7 | 0.00 | 0.00 | 0.00 | 83 | 1010.6 |
| 20260906074527 | 74 | 39 | 0.0 | 0.9 | 0.00 | 0.00 | 0.00 | 84 | 1010.8 |
| 20260906073027 | 74 | 39 | 0.0 | 1.7 | 0.00 | 0.00 | 0.00 | 84 | 1011.0 |
| 20260906071530 | 74 | 39 | 0.0 | 1.7 | 0.00 | 0.00 | 0.00 | 83 | 1010.9 |
| 20260906070013 | 74 | 39 | 0.0 | 0.9 | 0.00 | 0.00 | 0.00 | 83 | 1011.1 |
| 20260906064518 | 74 | 39 | 0.0 | 0.9 | 0.00 | 0.00 | 0.00 | 84 | 1011.1 |
| 20260906063023 | 75 | 39 | 0.0 | 0.9 | 0.00 | 0.00 | 0.00 | 83 | 1011.4 |
| 20260906061529 | 75 | 39 | 0.0 | 1.7 | 0.00 | 0.00 | 0.00 | 83 | 1011.3 |
| 20260906060031 | 75 | 38 | 0.9 | 2.6 | 0.00 | 0.00 | 0.00 | 83 | 1011.1 |
| 20260906054518 | 75 | 38 | 0.0 | 0.9 | 0.00 | 0.00 | 0.00 | 83 | 1011.2 |
| 20260906053019 | 75 | 38 | 0.0 | 0.9 | 0.00 | 0.00 | 0.00 | 83 | 1011.1 |
| 20260906051524 | 75 | 38 | 0.0 | 0.0 | 0.00 | 0.00 | 0.00 | 83 | 1011.6 |
| 20260906050031 | 75 | 38 | 0.0 | 1.7 | 0.00 | 0.00 | 0.00 | 83 | 1011.7 |
| 20260906044528 | 75 | 39 | 0.0 | 0.9 | 0.00 | 0.00 | 0.00 | 82 | 1011.8 |
| 20260906043015 | 76 | 39 | 0.0 | 2.6 | 0.00 | 0.00 | 0.00 | 82 | 1012.0 |
| 20260906041523 | 76 | 345 | 0.0 | 3.5 | 0.00 | 0.00 | 0.00 | 81 | 1012.1 |
| 20260906040032 | 76 | 335 | 0.9 | 2.6 | 0.00 | 0.00 | 0.00 | 82 | 1011.9 |
| 20260906034509 | 76 | 309 | 0.9 | 3.5 | 0.00 | 0.00 | 0.00 | 82 | 1012.0 |
| 20260906033013 | 76 | 317 | 1.7 | 7.0 | 0.00 | 0.00 | 0.00 | 81 | 1012.2 |
| 20260906031519 | 77 | 325 | 2.6 | 7.8 | 0.00 | 0.00 | 0.00 | 81 | 1012.1 |
| 20260906030009 | 77 | 346 | 1.7 | 3.5 | 0.00 | 0.00 | 0.00 | 81 | 1012.0 |
| 20260906024517 | 78 | 323 | 1.7 | 3.5 | 0.00 | 0.00 | 0.00 | 82 | 1012.1 |
| 20260906023018 | 78 | 317 | 0.0 | 3.5 | 0.00 | 0.00 | 0.00 | 81 | 1011.7 |
| 20260906021519 | 78 | 259 | 0.9 | 2.6 | 0.00 | 0.00 | 0.00 | 79 | 1011.2 |
| 20260906020022 | 79 | 294 | 1.7 | 3.5 | 0.00 | 0.00 | 0.00 | 77 | 1011.0 |
| 20260906014505 | 79 | 230 | 2.6 | 5.2 | 0.00 | 0.00 | 0.00 | 75 | 1010.7 |
| 20260906013020 | 78 | 344 | 3.5 | 7.0 | 0.00 | 0.00 | 0.00 | 77 | 1010.8 |
| 20260906011514 | 79 | 115 | 1.7 | 8.7 | 0.00 | 0.00 | 0.00 | 76 | 1009.1 |
| 20260906010024 | 79 | 195 | 3.5 | 5.2 | 0.00 | 0.00 | 0.00 | 73 | 1010.3 |
| 20260906004526 | 81 | 207 | 0.9 | 6.1 | 0.00 | 0.00 | 0.00 | 70 | 1011.1 |
| 20260906003004 | 82 | 267 | 0.9 | 11.3 | 0.00 | 0.00 | 0.00 | 64 | 1011.6 |
| 20260906001508 | 84 | 287 | 7.8 | 14.8 | 0.00 | 0.00 | 0.00 | 62 | 1011.8 |
| 20260906000019 | 86 | 39 | 7.0 | 10.4 | 0.00 | 0.00 | 0.00 | 64 | 1012.2 |
| 20260905234523 | 88 | 5 | 6.1 | 10.4 | 0.00 | 0.00 | 0.00 | 70 | 1011.9 |
| 20260905233027 | 88 | 219 | 0.9 | 2.6 | 0.00 | 0.00 | 0.00 | 74 | 1011.1 |
| 20260905231508 | 89 | 219 | 2.6 | 4.3 | 0.00 | 0.00 | 0.00 | 73 | 1011.3 |
| 20260905230013 | 89 | 221 | 1.7 | 7.8 | 0.00 | 0.00 | 0.00 | 72 | 1011.4 |
| 20260905224519 | 92 | 221 | 3.5 | 7.8 | 0.00 | 0.00 | 0.00 | 64 | 1010.9 |
| 20260905223022 | 93 | 219 | 1.7 | 6.1 | 0.00 | 0.00 | 0.00 | 59 | 1010.7 |
| 20260905221530 | 94 | 202 | 1.7 | 5.2 | 0.00 | 0.00 | 0.00 | 58 | 1010.6 |
| 20260905220012 | 93 | 207 | 1.7 | 6.1 | 0.00 | 0.00 | 0.00 | 58 | 1010.7 |
| 20260905214525 | 93 | 207 | 1.7 | 4.3 | 0.00 | 0.00 | 0.00 | 59 | 1010.6 |
| 20260905213019 | 94 | 180 | 4.3 | 7.8 | 0.00 | 0.00 | 0.00 | 58 | 1010.3 |
| 20260905211536 | 95 | 209 | 0.9 | 3.5 | 0.00 | 0.00 | 0.00 | 56 | 1010.2 |
| 20260905210036 | 94 | 224 | 0.9 | 7.8 | 0.00 | 0.00 | 0.00 | 57 | 1010.3 |
| 20260905204537 | 94 | 318 | 1.7 | 4.3 | 0.00 | 0.00 | 0.00 | 56 | 1010.4 |
| 20260905203016 | 93 | 219 | 2.6 | 6.1 | 0.00 | 0.00 | 0.00 | 58 | 1010.0 |
| 20260905201526 | 93 | 221 | 1.7 | 5.2 | 0.00 | 0.00 | 0.00 | 58 | 1010.1 |
| 20260905200035 | 93 | 214 | 2.6 | 7.0 | 0.00 | 0.00 | 0.00 | 59 | 1010.3 |
| 20260905194531 | 92 | 225 | 0.9 | 7.8 | 0.00 | 0.00 | 0.00 | 59 | 1010.6 |
| 20260905193031 | 93 | 217 | 0.9 | 7.0 | 0.00 | 0.00 | 0.00 | 59 | 1010.8 |
| 20260905191519 | 92 | 211 | 0.0 | 8.7 | 0.00 | 0.00 | 0.00 | 60 | 1010.8 |
| 20260905190027 | 92 | 298 | 1.7 | 6.1 | 0.00 | 0.00 | 0.00 | 61 | 1011.3 |
| 20260905184504 | 91 | 198 | 2.6 | 6.1 | 0.00 | 0.00 | 0.00 | 62 | 1011.8 |
| 20260905183001 | 91 | 259 | 3.5 | 7.8 | 0.00 | 0.00 | 0.00 | 62 | 1012.0 |
| 20260905181501 | 90 | 306 | 1.7 | 8.7 | 0.00 | 0.00 | 0.00 | 64 | 1012.1 |
| 20260905180004 | 90 | 325 | 1.7 | 7.8 | 0.00 | 0.00 | 0.00 | 67 | 1012.3 |
| 20260905174502 | 90 | 269 | 3.5 | 7.0 | 0.00 | 0.00 | 0.00 | 65 | 1012.4 |
| 20260905173003 | 90 | 273 | 4.3 | 7.8 | 0.00 | 0.00 | 0.00 | 65 | 1012.5 |
| 20260905171504 | 89 | 293 | 1.7 | 6.1 | 0.00 | 0.00 | 0.00 | 68 | 1012.7 |
| 20260905170003 | 89 | 180 | 1.7 | 5.2 | 0.00 | 0.00 | 0.00 | 68 | 1013.0 |
| 20260905164503 | 88 | 279 | 0.9 | 6.1 | 0.00 | 0.00 | 0.00 | 69 | 1013.3 |
| 20260905163006 | 88 | 268 | 2.6 | 7.8 | 0.00 | 0.00 | 0.00 | 71 | 1013.5 |
| 20260905161503 | 87 | 260 | 2.6 | 6.1 | 0.00 | 0.00 | 0.00 | 72 | 1013.7 |
| 20260905160003 | 86 | 221 | 0.0 | 4.3 | 0.00 | 0.00 | 0.00 | 74 | 1014.1 |
| 20260905154502 | 86 | 306 | 3.5 | 8.7 | 0.00 | 0.00 | 0.00 | 74 | 1014.3 |
| 20260905153004 | 85 | 350 | 1.7 | 7.8 | 0.00 | 0.00 | 0.00 | 76 | 1014.4 |
| 20260905151504 | 85 | 201 | 1.7 | 7.8 | 0.00 | 0.00 | 0.00 | 77 | 1014.5 |
| 20260905150004 | 84 | 259 | 1.7 | 4.3 | 0.00 | 0.00 | 0.00 | 78 | 1014.7 |
| 20260905144504 | 83 | 270 | 2.6 | 5.2 | 0.00 | 0.00 | 0.00 | 81 | 1014.6 |
| 20260905143005 | 83 | 271 | 4.3 | 7.8 | 0.00 | 0.00 | 0.00 | 81 | 1014.6 |
| 20260905141503 | 82 | 302 | 4.3 | 7.8 | 0.00 | 0.00 | 0.00 | 82 | 1014.4 |
| 20260905140005 | 82 | 308 | 3.5 | 9.6 | 0.00 | 0.00 | 0.00 | 82 | 1014.4 |
| 20260905134505 | 81 | 290 | 4.3 | 7.8 | 0.00 | 0.00 | 0.00 | 82 | 1014.7 |
| 20260905133004 | 81 | 274 | 2.6 | 7.8 | 0.00 | 0.00 | 0.00 | 83 | 1014.7 |
| 20260905131506 | 79 | 277 | 3.5 | 7.0 | 0.00 | 0.00 | 0.00 | 82 | 1014.8 |
| 20260905130005 | 79 | 330 | 2.6 | 7.0 | 0.00 | 0.00 | 0.00 | 80 | 1014.6 |
| 20260905124507 | 78 | 310 | 1.7 | 4.3 | 0.00 | 0.00 | 0.00 | 79 | 1014.6 |
| 20260905123015 | 77 | 300 | 0.9 | 3.5 | 0.00 | 0.00 | 0.00 | 79 | 1015.0 |
| 20260905121508 | 77 | 305 | 1.7 | 3.5 | 0.00 | 0.00 | 0.00 | 79 | 1014.3 |
| 20260905120007 | 77 | 300 | 1.7 | 3.5 | 0.00 | 0.00 | 0.00 | 79 | 1014.5 |
| 20260905114506 | 76 | 311 | 0.0 | 1.7 | 0.00 | 0.00 | 0.00 | 79 | 1014.4 |